^^
Saratoga-Weather Station Historical Data
Daily Summary for January 18, 2021 Units:  Metric    English   Both
Daily Weekly Monthly Yearly Custom
  High: Low: Average:
Temperature: 2.5 °C 2.2 °C 2.4 °C
Dew Point: 1.4 °C 1 °C 1.3 °C
Humidity: 93% 92% 93%
Wind Speed: 14.3km/h 1.4km/h 7.2km/h
Wind Gust: 25.7km/h - -
Wind- - West
Pressure: 1025.7 hPa 1025.1 hPa -
Precipitation: 0.2 mm    
Historical Graphs
 
 
Tabular Data for January 18, 2021
Time Temperature Dew Point Pressure Wind Wind Speed Wind Gust Humidity Rainfall Rate (Hourly) solar
00:03 2.4 °C 1.4 °C 1025.4 hPa WSW 6.4 km/h 8 km/h 93% 0.5 mm 0 W/m2
00:08 2.4 °C 1.4 °C 1025.4 hPa West 1.4 km/h 11.3 km/h 93% 0.2 mm 0 W/m2
00:13 2.4 °C 1.4 °C 1025.4 hPa NW 4.7 km/h 12.9 km/h 93% 0.2 mm 0 W/m2
00:18 2.4 °C 1.2 °C 1025.4 hPa West 14.3 km/h 16.1 km/h 92% 0.2 mm 0 W/m2
00:23 2.4 °C 1.2 °C 1025.4 hPa WSW 13 km/h 17.7 km/h 92% 0.2 mm 0 W/m2
00:28 2.5 °C 1.3 °C 1025.4 hPa West 6.4 km/h 16.1 km/h 92% 0.2 mm 0 W/m2
00:33 2.5 °C 1.3 °C 1025.4 hPa West 4.7 km/h 14.5 km/h 92% 0.2 mm 0 W/m2
00:38 2.5 °C 1.3 °C 1025.4 hPa West 6.4 km/h 17.7 km/h 92% 0.2 mm 0 W/m2
00:43 2.5 °C 1.3 °C 1025.4 hPa WNW 4.7 km/h 14.5 km/h 92% 0.2 mm 0 W/m2
00:48 2.4 °C 1.2 °C 1025.4 hPa WSW 7.9 km/h 14.5 km/h 92% 0.2 mm 0 W/m2
00:53 2.4 °C 1.2 °C 1025.4 hPa West 9.7 km/h 20.9 km/h 92% 0.2 mm 0 W/m2
00:58 2.4 °C 1.2 °C 1025.4 hPa WNW 9.7 km/h 24.1 km/h 92% 0.2 mm 0 W/m2
01:03 2.4 °C 1.2 °C 1025.4 hPa WSW 7.9 km/h 14.5 km/h 92% 0.0 mm 0 W/m2
01:08 2.4 °C 1.2 °C 1025.4 hPa West 11.1 km/h 20.9 km/h 92% 0.0 mm 0 W/m2
01:13 2.4 °C 1.2 °C 1025.4 hPa WSW 13 km/h 16.1 km/h 92% 0.0 mm 0 W/m2
01:18 2.3 °C 1.1 °C 1025.4 hPa WSW 4.7 km/h 14.5 km/h 92% 0.0 mm 0 W/m2
01:23 2.3 °C 1.1 °C 1025.4 hPa SW 4.7 km/h 25.7 km/h 92% 0.0 mm 0 W/m2
01:28 2.2 °C 1 °C 1025.1 hPa West 3.2 km/h 12.9 km/h 92% 0.0 mm 0 W/m2
01:33 2.2 °C 1.2 °C 1025.4 hPa West 3.2 km/h 22.5 km/h 93% 0.0 mm 0 W/m2
01:38 2.3 °C 1.3 °C 1025.4 hPa WNW 6.4 km/h 16.1 km/h 93% 0.0 mm 0 W/m2
01:43 2.3 °C 1.3 °C 1025.4 hPa SW 7.9 km/h 17.7 km/h 93% 0.0 mm 0 W/m2
01:48 2.3 °C 1.3 °C 1025.4 hPa WNW 6.4 km/h 12.9 km/h 93% 0.0 mm 0 W/m2
01:53 2.2 °C 1.2 °C 1025.4 hPa WNW 6.4 km/h 20.9 km/h 93% 0.0 mm 0 W/m2
01:58 2.2 °C 1.2 °C 1025.4 hPa WNW 6.4 km/h 12.9 km/h 93% 0.0 mm 0 W/m2
02:03 2.3 °C 1.3 °C 1025.4 hPa West 11.1 km/h 20.9 km/h 93% 0.0 mm 0 W/m2
02:08 2.3 °C 1.3 °C 1025.4 hPa SW 7.9 km/h 22.5 km/h 93% 0.0 mm 0 W/m2
02:13 2.4 °C 1.4 °C 1025.4 hPa West 6.4 km/h 17.7 km/h 93% 0.0 mm 0 W/m2
02:18 2.4 °C 1.4 °C 1025.4 hPa SW 7.9 km/h 22.5 km/h 93% 0.0 mm 0 W/m2
02:23 2.4 °C 1.4 °C 1025.7 hPa West 9.7 km/h 19.3 km/h 93% 0.0 mm 0 W/m2
02:28 2.4 °C 1.4 °C 1025.7 hPa WNW 9.7 km/h 16.1 km/h 93% 0.0 mm 0 W/m2
02:33 2.3 °C 1.3 °C 1025.7 hPa WNW 4.7 km/h 19.3 km/h 93% 0.0 mm 0 W/m2
02:38 2.3 °C 1.3 °C 1025.7 hPa SW 7.9 km/h 16.1 km/h 93% 0.0 mm 0 W/m2
02:43 2.3 °C 1.3 °C 1025.4 hPa WNW 11.1 km/h 19.3 km/h 93% 0.0 mm 0 W/m2
02:48 2.3 °C 1.3 °C 1025.4 hPa WNW 4.7 km/h 11.3 km/h 93% 0.0 mm 0 W/m2
02:53 2.3 °C 1.3 °C 1025.4 hPa West 4.7 km/h 9.7 km/h 93% 0.0 mm 0 W/m2
02:58 2.3 °C 1.3 °C 1025.4 hPa WNW 3.2 km/h 12.9 km/h 93% 0.0 mm 0 W/m2
03:03 2.3 °C 1.3 °C 1025.4 hPa WSW 7.9 km/h 12.9 km/h 93% 0.0 mm 0 W/m2
Juneau County Weather
Compliments of Weather Underground - 2 mb